Weather in Arhangelsk

Russia / Arkhangel'skaya Oblast'     64°32′21″N   40°31′00″E
temp.,
°C
wind,
m/s
gust,
m/s
humid.,
%
clouds,
%
prec.,
mm/h
press.,
hPa
HPBL,
m
17 april, sat
sat1700:00−1w26905 0.0 103395
03:000wsw268883 0.0 1033103
06:00+1w3108257 0.0 1032233
09:00+6wnw49635 0.0 1032655
12:00+8nw595978 0.0 1031847
15:00+8nw5115964 0.0 1031777
18:00+5nw412705 0.0 1031541
21:00+1nnw28935 0.0 1031180
18 april, sun
sun1800:00+1n269619 0.0 1033145
03:00−1ene27855 0.0 1035259
06:00−1ene278035 0.0 1036335
09:00+2e34545 0.0 1037844
12:00+4e23425 0.0 10371222
15:00+6e22340 0.0 10371343
18:00+5e23385 0.0 1037939
21:00+1ese22555 0.0 103729
19 april, mon
mon1900:000se226140 0.0 103833
03:00−1sse22625 0.0 103829
06:000s135951 0.0 103891
09:00+5s2342100 0.0 1037534
12:00+7ssw2336100 0.0 10361088
15:00+8ssw233654 0.0 10351134
18:00+8ssw23435 0.0 1034243
21:00+3ssw22623 0.0 103439
20 april, tue
tue2000:00+2ssw23702 0.0 103453
03:000ssw23745 0.0 103446
06:00+1ssw25700 0.0 1034120
09:00+7ssw24480 0.0 1033493
12:00+9ssw34380 0.0 10321171
15:00+11s34340 0.0 10311369
18:00+10s35400 0.0 10291238
21:00+5sse26610 0.0 1028100
21 april, wed
wed2100:00+3sse286988 0.0 1027169
03:00+2se2771100 0.0 1025140
06:00+3se3967100 0.0 1024279
09:00+5se41058100 0.0 1021505
12:00+7se41044100 0.0 1019908
15:00+7se41045100 0.1 10151118
18:00+4se51286100 0.8 10131001
21:00+4se41196100 1.4 1011995